Location: Newark
(51.3318°N, 0.0053°E)
Time: 01:34:58
(UTC+00:00)

M-CUBED/EXP-1 PRIME - Pass Details

Date: 07 July 2022
Orbit: 422 x 631 km, 101.7° (Epoch: 15 August)

Event Time Altitude Azimuth Distance (km) Brightness Sun altitude
Exits shadow 00:35:17 15° 126° (SE) 1,304 ? -15.8°
Maximum altitude 00:37:43 38° 62° (ENE) 719 ? -15.7°
Drops below altitude 10° 00:41:03 10° 353° (N) 1,672 ? -15.6°
Sets 00:43:15 0° 345° (NNW) 2,596 ? -15.6°
